Terminal Aerodrome Forecast
Issued by NWS

Home | Current Version | Previous Version | Text Only | Print | Product List | Glossary On
Versions: 1 2 3 4 5 6 7 8 9 10 11 12 13 14 15 16 17 18 19
000
FTUS41 KPHI 282300
TAFPNE
TAF
KPNE 282333Z 2900/2924 27003KT P6SM SCT250
     FM290600 00000KT P6SM BKN100
      TEMPO 2911/2913 BKN060
     FM291800 19005KT P6SM BKN080=

USA.gov is the U.S. government's official web portal to all federal, state and local government web resources and services.